Wind_Speed
11 13 15 16 19 18 15 10 15 17 20 25 23 19 17 13 11 14 18 15 11 16 16 14 15 15 14 13 12 13 17 16 17
14 16 16 15 20 15 12 17 18 19 22 24 19 17 15 13 11 11 17 15 15 15 17 14 13 14 14 11 13 16 14 14 13
14 17 16 17 21 15 11 16 18 19 22 22 19 16 16 12 12 17 16 17 14 16 17 17 16 15 17 19 18 15 13 13 11
18 17 17 17 17 15 12 14 17 19 22 23 18 16 13 10 10 10 17 18 13 16 15 21 21 22 21 21 18 14 13 13 16
18 16 18 18 18 16 13 13 16 19 23 22 19 16 11 15 15 16 22 19 17 18 23 21 21 21 19 17 15 17 19 18 20
19 18 18 15 15 15 14 14 17 22 23 21 18 16 14 12 16 17 20 21 20 16 21 22 21 20 15 12 14 16 17 19 19
18 18 17 15 13 13 14 15 20 25 24 17 16 13 10 10 15 16 20 19 18 20 19 17 17 15 13 9 14 15 16 19 20
18 19 18 16 15 16 16 20 27 22 18 14 15 14 13 10 18 14 15 15 18 21 18 13 13 10 7 9 15 13 18 21 20
17 18 19 16 14 18 19 24 25 21 14 18 17 16 12 14 19 16 19 20 22 18 12 12 9 8 9 15 16 20 19 19 16
16 17 20 18 14 22 22 22 24 15 9 18 15 14 13 14 18 19 17 18 20 16 13 10 8 11 16 17 20 18 16 15 15
17 18 19 17 17 22 21 18 19 14 11 15 15 14 12 18 19 19 17 18 20 14 10 10 10 15 18 17 16 16 17 14 12
17 20 22 20 18 15 17 16 21 15 14 13 11 15 13 17 18 18 17 22 16 13 8 9 13 17 14 13 15 15 14 10 9
23 21 23 25 22 20 21 21 24 20 16 16 14 14 14 16 19 19 16 19 16 11 9 11 17 14 12 11 14 10 8 5 6
26 24 25 26 25 26 26 25 27 25 22 19 18 17 15 15 14 16 18 20 16 12 11 9 10 9 8 10 9 9 6 3 4
30 30 28 28 29 27 29 29 30 29 27 23 19 17 17 15 14 16 19 19 20 13 10 10 4 7 6 9 9 6 4 2 3
29 30 31 31 34 29 31 30 32 33 31 28 23 17 15 17 16 16 17 17 15 15 13 9 5 4 5 9 9 6 2 1 1
28 30 31 31 33 32 34 34 35 33 33 32 28 18 15 20 16 21 19 25 21 17 13 10 7 8 9 14 12 9 5 3 0
28 30 31 31 32 35 36 36 36 36 34 31 22 14 11 24 24 19 21 21 19 18 16 12 10 12 13 14 15 12 9 8 4
30 31 32 31 32 34 36 36 35 34 33 33 32 18 14 20 19 28 26 24 23 21 20 18 19 16 15 17 16 15 12 11 12
30 33 35 33 33 34 35 37 35 34 32 34 36 26 18 21 18 28 32 29 26 24 24 23 21 19 18 18 17 17 15 15 14
Wind_Direction
150 147 140 140 136 149 146 134 133 125 127 133 126 121 118 120 117 113 119 111 119 135 133 115 113 110 108 105 101 98 87 88 88
147 144 143 144 136 150 132 127 128 128 130 136 129 127 123 115 116 111 112 111 108 112 120 131 125 121 122 125 108 90 99 97 90
150 144 144 143 139 149 155 135 132 131 134 129 128 124 125 133 102 117 114 110 114 116 117 118 113 116 105 102 104 113 107 102 91
150 146 143 140 145 158 169 143 131 133 135 135 132 127 127 138 120 129 122 119 114 118 118 107 103 97 103 115 114 113 109 92 86
147 148 147 149 156 166 169 135 132 135 141 140 137 127 126 126 131 124 119 117 119 102 104 106 111 114 120 119 114 103 95 89 93
158 155 149 157 157 163 159 141 138 142 144 141 133 137 137 134 140 125 128 122 129 117 119 123 125 126 125 118 107 100 94 96 95
162 161 150 167 157 153 147 142 140 141 143 141 138 149 145 132 137 122 142 146 142 130 129 137 128 129 128 120 109 105 102 98 96
167 154 160 168 161 154 146 142 141 139 141 139 142 157 148 141 132 126 156 142 141 128 138 135 126 130 139 124 115 110 107 103 99
172 171 165 168 166 145 144 144 140 135 140 139 148 154 153 141 138 124 125 139 137 142 139 129 121 125 118 115 114 108 107 111 112
185 182 178 172 157 149 145 146 156 139 135 156 167 156 164 153 148 134 139 138 143 141 135 121 108 117 111 114 110 118 115 106 107
197 194 184 179 153 161 157 149 154 164 161 174 183 189 177 163 159 153 142 154 151 147 139 106 107 122 118 120 124 109 109 122 124
200 190 183 176 166 171 166 165 167 172 176 178 187 192 181 165 166 158 153 160 157 154 155 98 113 113 126 128 114 132 147 134 114
213 194 183 178 178 186 177 173 171 171 180 168 170 170 179 168 167 173 164 169 166 167 132 98 115 138 138 128 138 156 152 133 83
204 202 191 187 182 188 184 175 182 178 175 171 166 174 177 181 176 185 178 170 178 174 142 113 145 164 150 138 152 160 148 118 78
204 206 206 199 199 192 190 181 185 188 188 182 166 178 182 184 187 183 180 185 183 188 167 159 158 184 187 164 169 165 158 135 87
210 211 210 209 209 204 196 188 187 188 193 187 174 165 181 185 193 200 196 176 192 188 185 183 226 259 184 174 200 178 172 66 89
216 213 211 209 210 208 202 199 193 196 197 189 185 168 184 187 184 199 197 188 183 184 193 209 216 258 231 197 215 231 274 307 323
223 217 216 211 210 208 207 206 205 197 196 200 186 166 194 188 193 191 192 211 213 211 213 217 237 249 239 225 226 243 261 285 280
224 219 217 216 213 211 210 211 211 211 200 195 204 194 196 181 191 204 209 211 216 220 224 227 243 242 237 233 234 241 260 272 282
225 221 218 215 216 216 214 213 215 217 215 206 204 204 205 203 193 200 203 206 205 210 230 238 239 239 231 242 242 245 249 261 268
Height
1547 1548 1551 1553 1555 1557 1557 1558 1561 1562 1564 1567 1569 1570 1571 1571 1570 1571 1572 1573 1573 1574 1577 1578 1578 1578 1578 1578 1580 1580 1580 1580 1581
1547 1548 1551 1553 1556 1558 1558 1559 1562 1564 1566 1568 1570 1571 1572 1572 1572 1572 1573 1574 1575 1577 1577 1579 1579 1579 1579 1580 1581 1582 1582 1582 1582
1546 1549 1552 1554 1557 1560 1560 1561 1563 1565 1567 1569 1571 1572 1573 1574 1574 1574 1575 1576 1577 1578 1578 1579 1579 1579 1580 1582 1583 1583 1583 1583 1582
1546 1550 1552 1556 1559 1561 1562 1562 1564 1566 1568 1570 1571 1573 1574 1575 1576 1575 1576 1577 1578 1578 1578 1579 1580 1581 1583 1584 1585 1584 1584 1584 1584
1547 1551 1554 1556 1559 1561 1562 1563 1565 1567 1569 1571 1572 1574 1575 1576 1577 1577 1578 1579 1580 1580 1580 1582 1583 1584 1585 1585 1586 1586 1586 1585 1585
1547 1550 1554 1557 1558 1560 1562 1564 1566 1568 1570 1572 1574 1575 1576 1577 1578 1579 1580 1581 1581 1582 1583 1584 1585 1586 1587 1587 1588 1588 1588 1588 1588
1548 1550 1554 1557 1558 1561 1563 1566 1567 1569 1571 1573 1575 1576 1577 1578 1579 1580 1582 1582 1583 1584 1584 1585 1587 1587 1588 1588 1589 1589 1589 1589 1590
1547 1551 1554 1556 1557 1559 1563 1567 1570 1572 1573 1574 1577 1578 1579 1579 1580 1581 1583 1584 1585 1586 1585 1586 1587 1588 1589 1588 1589 1589 1590 1591 1592
1547 1550 1553 1555 1558 1561 1563 1567 1572 1574 1576 1577 1577 1579 1581 1581 1581 1582 1584 1586 1586 1588 1589 1588 1589 1589 1589 1590 1590 1592 1593 1593 1594
1546 1549 1551 1554 1557 1561 1565 1567 1571 1574 1577 1579 1579 1581 1582 1582 1583 1585 1586 1587 1588 1589 1590 1590 1590 1590 1592 1592 1593 1594 1596 1596 1596
1544 1547 1550 1553 1557 1561 1565 1568 1572 1573 1576 1580 1581 1582 1583 1583 1584 1586 1587 1589 1590 1590 1591 1591 1591 1591 1593 1595 1595 1596 1598 1597 1597
1542 1544 1548 1552 1556 1560 1564 1568 1572 1573 1575 1579 1582 1582 1584 1584 1586 1587 1588 1590 1591 1591 1592 1593 1593 1594 1595 1596 1597 1598 1597 1597 1598
1540 1543 1546 1549 1553 1558 1561 1566 1570 1572 1575 1576 1581 1583 1585 1586 1586 1588 1589 1590 1592 1593 1593 1595 1596 1597 1597 1598 1598 1598 1598 1598 1598
1539 1542 1545 1548 1551 1554 1557 1561 1566 1571 1572 1575 1578 1582 1584 1587 1587 1588 1590 1590 1593 1593 1594 1596 1598 1599 1599 1599 1599 1598 1598 1598 1599
1537 1541 1544 1547 1549 1552 1555 1557 1561 1565 1571 1573 1577 1581 1583 1586 1587 1588 1589 1590 1592 1594 1594 1595 1597 1600 1600 1601 1600 1598 1598 1599 1599
1533 1537 1542 1545 1547 1549 1553 1557 1558 1561 1564 1570 1575 1580 1582 1584 1587 1588 1589 1589 1591 1593 1594 1595 1597 1599 1600 1601 1601 1600 1598 1599 1598
1528 1532 1536 1540 1544 1548 1550 1552 1554 1558 1561 1565 1570 1577 1583 1582 1585 1587 1588 1587 1588 1591 1592 1594 1596 1599 1599 1599 1600 1599 1599 1599 1598
1524 1528 1532 1536 1540 1543 1547 1549 1552 1553 1557 1562 1564 1569 1574 1578 1582 1584 1585 1586 1587 1588 1591 1593 1595 1597 1598 1599 1599 1599 1598 1598 1598
1520 1523 1527 1531 1535 1539 1542 1547 1549 1552 1554 1558 1560 1561 1563 1570 1576 1581 1582 1583 1584 1586 1587 1589 1592 1594 1595 1597 1597 1597 1598 1597 1595
1516 1520 1522 1525 1530 1533 1538 1542 1545 1550 1552 1553 1555 1557 1561 1563 1566 1570 1575 1579 1581 1583 1584 1585 1588 1591 1591 1593 1595 1595 1595 1596 1595